x

East Hatteras - 150 Nm East Of Cape Hatteras (41001) Wave Buoy

6:50pm - Wed 24th May 2017 All times are EDT. -4 hours from GMT.

  • Sig Wave height 9.5ft
  • Swell Direction
  • Peak Period 9s
  • Average Period 7s
  • Wind
    25mph, 31mph gusts
  • Sea Temp 75°f
  • 空気 Temp 74°f
  • Sea Pressure 1009.1mb
  • East Hatteras - 150 Nm East Of Cape Hatteras
  • East Hatteras - 150 Nm East Of Cape Hatteras

More Historic Weather Station data

Upgrade to MSW Pro to gain access to the past 30 days of data for over 8000 Wavebouys and Weather Stations around the globe.

Join Pro

Comparision Forecast

View Surf forecast
   
Wed 05/24 6:50pm 9.5ft 9s 7s 25 31 mph 1009.1mb 75f 74f
6:40pm  -   -   -  25 29 mph 1008.9mb 75f 74f
6:30pm  -   -   -  22 29 mph 1008.8mb 75f 74f
6:20pm  -   -   -  22 29 mph 1008.6mb 75f 74f
6:10pm  -   -   -  22 29 mph 1008.9mb 76f 74f
6:00pm  -   -   -  25 31 mph 1008.9mb 76f 74f
5:50pm 9ft 9s 7s 25 31 mph 1009mb 76f 74f
5:40pm 9ft  -  7s 27 34 mph 1009.1mb 76f 74f
5:30pm  -   -   -  27 31 mph 1009.1mb 76f 74f
5:20pm  -   -   -  25 31 mph 1009.1mb 76f 74f
5:10pm  -   -   -  25 34 mph 1009.1mb 76f 75f
5:00pm  -   -   -  25 31 mph 1009mb 76f 75f
4:50pm 10ft 9s 7s 25 31 mph 1009mb 76f 75f
4:40pm 10ft  -  7s 25 31 mph 1009mb 76f 75f
4:30pm  -   -   -  22 31 mph 1008.9mb 76f 75f
4:20pm  -   -   -  25 29 mph 1008.6mb 76f 74f
4:10pm  -   -   -  25 31 mph 1008.6mb 76f 74f
4:00pm  -   -   -  25 31 mph 1008.5mb 76f 75f
3:50pm 9ft 9s 6s 22 31 mph 1008.8mb 76f 75f
3:40pm  -   -   -  22 29 mph 1008.6mb 76f 75f
3:30pm  -   -   -  22 27 mph 1008.6mb 76f 75f
3:20pm  -   -   -  22 29 mph 1008.6mb 76f 75f
3:10pm  -   -   -  25 29 mph 1008.9mb 76f 74f
3:00pm  -   -   -  25 31 mph 1008.9mb 76f 74f
2:50pm 11ft 9s 7s 25 29 mph 1008.8mb 76f 74f
2:40pm 11ft  -  7s 22 31 mph 1008.4mb 76f 74f
2:30pm  -   -   -  22 29 mph 1008.4mb 76f 74f
2:20pm  -   -   -  22 27 mph 1008.6mb 76f 74f
2:10pm  -   -   -  22 27 mph 1008.6mb 76f 74f
2:00pm  -   -   -  22 27 mph 1008.5mb 76f 74f
1:50pm 8.5ft 8s 6s 22 27 mph 1008.3mb 76f 74f
1:40pm 8.5ft  -  6s 22 27 mph 1008.4mb 76f 74f
1:30pm  -   -   -  22 29 mph 1008.5mb 76f 74f
1:20pm  -   -   -  22 29 mph 1008.6mb 76f 73f
1:10pm  -   -   -  22 29 mph 1008.6mb 76f 73f
1:00pm  -   -   -  25 31 mph 1008.6mb 76f 73f
12:50pm 9ft 8s 6s 29 36 mph 1009.1mb 76f 73f
12:40pm  -   -   -  29 34 mph 1009.5mb 76f 73f
12:30pm  -   -   -  25 31 mph 1009.8mb 76f 73f
12:20pm  -   -   -  22 29 mph 1010mb 76f 73f
12:10pm  -   -   -  25 31 mph 1010.1mb 76f 73f
12:00pm  -   -   -  25 31 mph 1010mb 76f 73f
11:50am 9.5ft 8s 6s 25 34 mph 1009.8mb 76f 73f
11:40am  -   -   -  25 31 mph 1009.5mb 76f 73f
11:30am  -   -   -  25 31 mph 1009.8mb 76f 73f
11:20am  -   -   -  25 29 mph 1009.6mb 76f 73f
11:10am  -   -   -  22 29 mph 1009.6mb 76f 73f
11:00am  -   -   -  25 31 mph 1009.8mb 76f 72f
10:50am 9.5ft 9s 7s 25 31 mph 1009.8mb 76f 72f
10:40am 9.5ft  -  7s 25 31 mph 1009.8mb 76f 72f
10:30am  -   -   -  25 29 mph 1009.6mb 76f 72f
10:20am  -   -   -  22 29 mph 1009.5mb 76f 72f
10:10am  -   -   -  22 29 mph 1009.5mb 76f 72f
10:00am  -   -   -  22 29 mph 1009.5mb 76f 72f
9:50am 9.5ft 8s 7s 25 31 mph 1009.5mb 76f 72f
9:40am  -   -   -  25 29 mph 1009.5mb 76f 72f
9:30am  -   -   -  22 31 mph 1009.6mb 76f 73f
9:20am  -   -   -  22 29 mph 1009.5mb 76f 72f
9:10am  -   -   -  22 29 mph 1009.6mb 76f 72f
9:00am  -   -   -  22 29 mph 1009.8mb 76f 72f
8:50am 9ft 9s 7s 22 29 mph 1009.8mb 76f 72f
8:40am  -   -   -  20 29 mph 1009.6mb 76f 72f
8:30am  -   -   -  20 27 mph 1009.8mb 76f 72f
8:20am  -   -   -  20 25 mph 1009.5mb 76f 72f
8:10am  -   -   -  18 25 mph 1009.3mb 76f 72f
8:00am  -   -   -  20 25 mph 1009.5mb 76f 72f
7:50am 10ft 8s 7s 18 25 mph 1009.5mb 76f 72f
7:40am 10ft  -  7s 18 25 mph 1009.3mb 76f 72f
7:30am  -   -   -  20 25 mph 1009.1mb 76f 72f
7:20am  -   -   -  20 27 mph 1009mb 75f 72f
7:10am  -   -   -  16 25 mph 1009.1mb 75f 72f
7:00am  -   -   -  16 22 mph 1009.5mb 75f 73f
6:50am 9ft 8s 6s 16 20 mph 1009.3mb 75f 73f
6:40am  -   -   -  13 20 mph 1009.1mb 75f 73f
6:30am  -   -   -  16 22 mph 1009mb 75f 73f
6:20am  -   -   -  16 20 mph 1009.1mb 74f 72f
6:10am  -   -   -  16 20 mph 1009mb 74f 72f
6:00am  -   -   -  18 22 mph 1008.3mb 74f 71f
5:50am 8ft 8s 6s 20 27 mph 1009.3mb 74f 71f
5:40am  -   -   -  22 29 mph 1009.4mb 74f 71f
5:30am  -   -   -  25 29 mph 1009.4mb 74f 70f
5:20am  -   -   -  27 36 mph 1009.1mb 74f 70f
5:10am  -   -   -  27 36 mph 1009.3mb 73f 70f
5:00am  -   -   -  29 36 mph 1009mb 74f 72f
4:50am 8ft 8s 6s 27 38 mph 1009mb 74f 74f
4:40am 8ft  -  6s 25 31 mph 1008.6mb 74f 75f
4:30am  -   -   -  25 31 mph 1008.5mb 74f 75f
4:20am  -   -   -  27 31 mph 1008.1mb 74f 75f
4:10am  -   -   -  25 34 mph 1008mb 74f 75f
4:00am  -   -   -  27 34 mph 1008mb 74f 75f
3:50am 7.5ft 8s 6s 27 31 mph 1008mb 74f 75f
3:40am 7.5ft  -  6s 27 31 mph 1008mb 74f 75f
3:30am  -   -   -  27 34 mph 1008mb 74f 75f
3:20am  -   -   -  25 31 mph 1008.1mb 74f 75f
3:10am  -   -   -  25 29 mph 1008.3mb 74f 75f
3:00am  -   -   -  25 31 mph 1008.5mb 74f 75f
2:50am 7.5ft 8s 6s 25 31 mph 1008.6mb 74f 75f
2:40am  -   -   -  25 29 mph 1008.5mb 74f 75f
2:30am  -   -   -  22 29 mph 1008.5mb 74f 75f
2:20am  -   -   -  22 29 mph 1008.5mb 74f 75f
2:10am  -   -   -  22 29 mph 1008.6mb 74f 75f
2:00am  -   -   -  25 31 mph 1008.9mb 74f 75f
1:50am 7ft 8s 6s 25 31 mph 1008.9mb 74f 75f
1:40am  -   -   -  25 31 mph 1008.9mb 74f 75f
1:30am  -   -   -  25 31 mph 1009mb 74f 75f
1:20am  -   -   -  25 29 mph 1009mb 74f 75f
1:10am  -   -   -  25 29 mph 1009mb 74f 75f
1:00am  -   -   -  25 29 mph 1009.1mb 74f 75f
12:50am 6.5ft 8s 6s 25 29 mph 1009.5mb 74f 75f
12:40am  -   -   -  22 29 mph 1009.5mb 74f 75f
12:30am  -   -   -  22 29 mph 1009.5mb 74f 75f
12:20am  -   -   -  22 27 mph 1009.6mb 74f 75f
12:10am  -   -   -  22 27 mph 1010mb 74f 75f
12:00am  -   -   -  22 27 mph 1010mb 74f 75f
Tue 05/23 11:50pm 7ft 7s 6s 22 27 mph 1010.1mb 74f 75f
11:40pm 7ft  -  6s 22 27 mph 1010.3mb 74f 75f
11:30pm  -   -   -  20 27 mph 1010.4mb 74f 75f
11:20pm  -   -   -  22 27 mph 1010.5mb 74f 75f
11:10pm  -   -   -  22 27 mph 1010.6mb 74f 75f
11:00pm  -   -   -  22 27 mph 1010.8mb - 75f
10:50pm 7ft 7s 6s 22 27 mph 1011mb 74f 75f
10:40pm  -   -   -  22 27 mph 1010.9mb 74f 75f
10:30pm  -   -   -  22 27 mph 1010.9mb 74f 75f
10:20pm  -   -   -  22 27 mph 1010.9mb 74f 75f
10:10pm  -   -   -  22 27 mph 1010.8mb 74f 75f
10:00pm  -   -   -  22 29 mph 1010.5mb 74f 75f
9:50pm 7.5ft 7s 6s 22 27 mph 1010.6mb 74f 75f
9:40pm 7.5ft  -  6s 22 29 mph 1010.5mb 74f 75f
9:30pm  -   -   -  22 29 mph 1010.5mb 74f 75f
9:20pm  -   -   -  22 31 mph 1010.4mb 74f 75f
9:10pm  -   -   -  25 29 mph 1010.3mb 74f 75f
9:00pm  -   -   -  25 29 mph 1010.3mb 74f 75f
8:50pm 7ft 7s 6s 25 29 mph 1010.3mb 74f 75f
8:40pm  -   -   -  22 29 mph 1010.4mb 74f 75f
8:30pm  -   -   -  22 29 mph 1010.4mb 74f 75f
8:20pm  -   -   -  22 29 mph 1010.5mb 74f 75f
8:10pm  -   -   -  22 29 mph 1010.8mb 74f 75f
8:00pm  -   -   -  22 29 mph 1010.9mb - 75f
7:50pm 7ft 7s 6s 22 27 mph 1011mb 74f 75f
7:40pm 7ft  -  6s 22 27 mph 1011mb 74f 75f
7:30pm  -   -   -  22 29 mph 1010.8mb 74f 75f
7:20pm  -   -   -  25 29 mph 1010.5mb 74f 75f
7:10pm  -   -   -  22 27 mph 1010.5mb 74f 75f
7:00pm  -   -   -  22 27 mph 1010.5mb 74f 75f
6:50pm 6ft 6s 5s 22 29 mph 1010.6mb 74f 75f
6:40pm  -   -   -  22 27 mph 1010.8mb 74f 75f
6:30pm  -   -   -  20 27 mph 1010.6mb 74f 75f
6:20pm  -   -   -  20 27 mph 1010.6mb 74f 75f
6:10pm  -   -   -  20 25 mph 1010.5mb 74f 75f
6:00pm  -   -   -  20 25 mph 1010.5mb 74f 75f
5:50pm 6ft 6s 5s 20 25 mph 1010.8mb 74f 75f
5:40pm  -   -   -  20 25 mph 1010.8mb 74f 75f
5:30pm  -   -   -  20 27 mph 1010.9mb 74f 75f
5:20pm  -   -   -  20 25 mph 1011mb 74f 75f
5:10pm  -   -   -  20 27 mph 1011mb 74f 75f
5:00pm  -   -   -  20 25 mph 1011.1mb - 75f
4:50pm 5.5ft 6s 5s 20 22 mph 1011.3mb 74f 75f
4:40pm 5.5ft  -  5s 20 25 mph 1011.5mb 74f 75f
4:30pm  -   -   -  18 22 mph 1011.5mb 74f 75f
4:20pm  -   -   -  18 25 mph 1011.6mb 74f 75f
4:10pm  -   -   -  20 25 mph 1011.6mb 74f 75f
4:00pm  -   -   -  18 22 mph 1011.9mb 74f 75f
3:50pm 5ft 6s 5s 18 25 mph 1012mb 74f 75f
3:40pm  -   -   -  18 22 mph 1012mb 74f 75f
3:30pm  -   -   -  18 22 mph 1012.1mb 74f 75f
3:20pm  -   -   -  18 22 mph 1012.3mb 74f 75f
3:10pm  -   -   -  18 22 mph 1012.4mb 74f 75f
3:00pm  -   -   -  18 22 mph 1012.5mb - 75f
2:50pm 5ft 6s 5s 18 22 mph 1012.5mb 74f 75f
2:40pm 5ft  -  5s 18 22 mph 1012.6mb 74f 75f
2:30pm  -   -   -  18 22 mph 1012.8mb 74f 75f
2:20pm  -   -   -  18 22 mph 1012.9mb 74f 75f
2:10pm  -   -   -  18 22 mph 1013mb 74f 75f
2:00pm  -   -   -  18 25 mph 1013.1mb - 75f
1:50pm 5ft 6s 5s 18 22 mph 1013.4mb 74f 75f
1:40pm 5ft  -  5s 18 22 mph 1013.5mb 74f 75f
1:30pm  -   -   -  18 20 mph 1013.5mb 74f 75f
1:20pm  -   -   -  18 22 mph 1013.8mb 74f 75f
1:10pm  -   -   -  18 22 mph 1013.8mb 74f 75f
1:00pm  -   -   -  18 22 mph 1014mb 74f 75f
12:50pm 5ft 6s 5s 18 20 mph 1014mb 74f 74f
12:40pm  -   -   -  18 20 mph 1014.3mb 74f 75f
12:30pm  -   -   -  18 22 mph 1014.3mb 74f 75f
12:20pm  -   -   -  16 20 mph 1014.4mb 74f 75f
12:10pm  -   -   -  16 20 mph 1014.4mb 74f 74f
12:00pm  -   -   -  16 20 mph 1014.5mb 74f 75f
11:50am 5ft 6s 5s 16 20 mph 1014.5mb 74f 74f
11:40am  -   -   -  16 20 mph 1014.6mb 74f 74f
11:30am  -   -   -  16 20 mph 1014.9mb 73f 74f
11:20am  -   -   -  16 20 mph 1014.9mb 73f 74f
11:10am  -   -   -  16 20 mph 1015mb 73f 74f
11:00am  -   -   -  18 22 mph 1015mb 73f 74f
10:50am 4.5ft 6s 5s 16 20 mph 1015mb 73f 74f
10:40am  -   -   -  18 20 mph 1015.1mb 73f 74f
10:30am  -   -   -  18 20 mph 1015.1mb 73f 74f
10:20am  -   -   -  16 20 mph 1015.1mb 73f 74f
10:10am  -   -   -  16 20 mph 1015.1mb 73f 74f
10:00am  -   -   -  16 18 mph 1015mb 73f 74f
9:50am 4.5ft 6s 5s 16 20 mph 1015mb 73f 74f
9:40am 4.5ft  -  5s 16 20 mph 1015mb 73f 74f
9:30am  -   -   -  16 20 mph 1015mb 73f 74f
9:20am  -   -   -  16 18 mph 1015mb 73f 74f
9:10am  -   -   -  16 18 mph 1015mb 73f 74f
9:00am  -   -   -  16 18 mph 1015mb 73f 74f
8:50am 4ft 6s 5s 13 16 mph 1015mb 73f 74f
8:40am  -   -   -  16 20 mph 1015mb 73f 74f
8:30am  -   -   -  16 18 mph 1015mb 73f 74f
8:20am  -   -   -  16 20 mph 1015mb 73f 74f
8:10am  -   -   -  16 20 mph 1015mb 73f 74f
8:00am  -   -   -  16 18 mph 1015mb 73f 74f
7:50am 4.5ft 6s 5s 16 20 mph 1015.1mb 73f 74f
7:40am 4.5ft  -  5s 16 20 mph 1015.1mb 73f 74f
7:30am  -   -   -  16 20 mph 1015.1mb 73f 74f
7:20am  -   -   -  16 20 mph 1015mb 73f 74f
7:10am  -   -   -  18 20 mph 1015mb 73f 74f
7:00am  -   -   -  16 20 mph 1015mb 73f 74f
6:50am 4.5ft 5s 5s 18 22 mph 1015mb 73f 74f
6:40am 4.5ft  -  5s 16 20 mph 1014.9mb 73f 74f
6:30am  -   -   -  16 18 mph 1014.8mb 73f 74f
6:20am  -   -   -  16 20 mph 1014.5mb 73f 74f
6:10am  -   -   -  16 18 mph 1014.6mb 73f 74f
6:00am  -   -   -  16 20 mph 1014.6mb - 74f
5:50am 4.5ft 5s 5s 16 20 mph 1014.5mb 73f 74f
5:40am 4.5ft  -  5s 16 20 mph 1014.5mb 73f 74f
5:30am  -   -   -  16 20 mph 1014.5mb 73f 74f
5:20am  -   -   -  16 20 mph 1014.5mb 73f 74f
5:10am  -   -   -  13 18 mph 1014.5mb 73f 74f
5:00am  -   -   -  16 18 mph 1014.4mb 73f 74f
4:50am 3.5ft 7s 5s 13 18 mph 1014.5mb 73f 74f
4:40am 3.5ft  -  5s 13 18 mph 1014.6mb 73f 74f
4:30am  -   -   -  16 20 mph 1014.1mb 73f 74f
4:20am  -   -   -  13 18 mph 1015mb 73f 74f
4:10am  -   -   -  16 18 mph 1015mb 73f 74f
4:00am  -   -   -  16 20 mph 1015mb 73f 74f
3:50am 3.5ft 6s 5s 16 20 mph 1015mb 73f 74f
3:40am  -   -   -  16 20 mph 1015.1mb 73f 74f
3:30am  -   -   -  16 22 mph 1015.1mb 73f 74f
3:20am  -   -   -  16 18 mph 1015.3mb 73f 74f
3:10am  -   -   -  13 18 mph 1015.4mb - 74f
3:00am  -   -   -  13 18 mph 1015.4mb 73f 74f
2:50am 3.5ft 7s 5s 16 18 mph 1015.5mb 73f 74f
2:40am  -   -   -  13 18 mph 1015.5mb 73f 74f
2:30am  -   -   -  13 16 mph 1015.6mb 73f 74f
2:20am  -   -   -  13 18 mph 1015.8mb 73f 74f
2:10am  -   -   -  13 18 mph 1016mb 73f 74f
2:00am  -   -   -  11 13 mph 1016mb 73f 74f
1:50am 3.5ft 6s 5s 13 16 mph 1016mb 73f 74f
1:40am 3.5ft  -  5s 13 16 mph 1016.3mb 73f 74f
1:30am  -   -   -  13 16 mph 1016.3mb 73f 73f
1:20am  -   -   -  13 16 mph 1016.4mb 73f 73f
1:10am  -   -   -  13 16 mph 1016.5mb - 73f
1:00am  -   -   -  13 16 mph 1016.8mb 73f 73f
12:50am 3.5ft 7s 5s 13 16 mph 1016.9mb 73f 73f
12:40am  -   -   -  13 16 mph 1017mb 73f 73f
12:30am  -   -   -  13 16 mph 1017.3mb 73f 73f
12:20am  -   -   -  13 18 mph 1017.3mb 73f 73f
12:10am  -   -   -  13 16 mph 1017.4mb 73f 73f
12:00am  -   -   -  13 16 mph 1017.6mb 73f 73f
Mon 05/22 11:50pm 3.5ft 7s 5s 13 18 mph 1017.8mb 73f 73f
11:40pm 3.5ft  -  5s 13 16 mph 1018mb 73f 73f
11:30pm  -   -   -  13 16 mph 1018mb 73f 73f
11:20pm  -   -   -  13 16 mph 1018mb 73f 73f
11:10pm  -   -   -  13 16 mph 1018mb 73f 73f
11:00pm  -   -   -  13 18 mph 1018.1mb 73f 73f
10:50pm 4ft 7s 5s 16 18 mph 1018.1mb 73f 73f
10:40pm 4ft  -  5s 16 18 mph 1018.1mb 73f 73f
10:30pm  -   -   -  13 18 mph 1018.1mb 73f 73f
10:20pm  -   -   -  13 18 mph 1018.1mb 73f 73f
10:10pm  -   -   -  16 18 mph 1018.1mb 73f 73f
10:00pm  -   -   -  16 18 mph 1018.1mb 73f 73f
9:50pm 4ft 7s 5s 13 18 mph 1018mb 73f 73f
9:40pm  -   -   -  16 18 mph 1018mb 73f 73f
9:30pm  -   -   -  16 18 mph 1018mb 73f 73f
9:20pm  -   -   -  16 20 mph 1017.6mb 73f 73f
9:10pm  -   -   -  16 20 mph 1017.5mb 73f 73f
9:00pm  -   -   -  18 20 mph 1017.5mb 73f 73f
8:50pm 4ft 6s 5s 16 20 mph 1017.3mb 73f 73f
8:40pm  -   -   -  16 20 mph 1017.5mb 73f 73f
8:30pm  -   -   -  16 20 mph 1017.4mb 73f 73f
8:20pm  -   -   -  16 20 mph 1017.4mb 73f 73f
8:10pm  -   -   -  16 20 mph 1017.4mb 73f 73f
8:00pm  -   -   -  16 20 mph 1017.3mb - 73f
7:50pm 4ft 7s 5s 18 20 mph 1017.4mb 73f 73f
7:40pm 4ft  -  5s 18 20 mph 1017.3mb 73f 73f
7:30pm  -   -   -  18 20 mph 1017mb 73f 73f
7:20pm  -   -   -  18 20 mph 1017.1mb 73f 73f
7:10pm  -   -   -  18 20 mph 1017mb 73f 73f
7:00pm  -   -   -  16 20 mph 1017mb 73f 73f
6:50pm 4ft 7s 5s 18 20 mph 1016.9mb 73f 73f
6:40pm 4ft  -  5s 16 22 mph 1016.9mb 73f 73f
6:30pm  -   -   -  18 20 mph 1016.9mb 73f 73f
6:20pm  -   -   -  18 20 mph 1016.8mb 73f 73f
6:10pm  -   -   -  18 20 mph 1016.8mb 73f 73f
6:00pm  -   -   -  18 20 mph 1016.6mb - 73f
5:50pm 4.5ft 8s 5s 18 20 mph 1016.8mb 73f 73f
5:40pm  -   -   -  18 22 mph 1016.9mb 73f 73f
5:30pm  -   -   -  18 22 mph 1017.1mb 73f 73f
5:20pm  -   -   -  18 22 mph 1017mb 73f 73f
5:10pm  -   -   -  20 22 mph 1017mb 73f 73f
5:00pm  -   -   -  18 25 mph 1017mb 73f 73f
4:50pm 4ft 8s 5s 18 22 mph 1017.3mb 73f 73f
4:40pm  -   -   -  18 20 mph 1017.4mb 73f 73f
4:30pm  -   -   -  16 20 mph 1017.5mb 73f 73f
4:20pm  -   -   -  16 20 mph 1017.6mb 73f 73f
4:10pm  -   -   -  16 20 mph 1017.9mb 73f 73f
4:00pm  -   -   -  16 18 mph 1018mb 73f 73f
3:50pm 3.5ft 6s 5s 16 18 mph 1018.3mb 73f 73f
3:40pm  -   -   -  16 18 mph 1018.5mb 73f 73f
3:30pm  -   -   -  13 18 mph 1018.5mb 73f 73f
3:20pm  -   -   -  16 18 mph 1018.6mb 73f 73f
3:10pm  -   -   -  13 18 mph 1018.9mb 73f 73f
3:00pm  -   -   -  13 18 mph 1018.9mb 73f 73f
2:50pm 4ft 7s 5s 13 18 mph 1019mb 73f 73f
2:40pm  -   -   -  16 18 mph 1019mb 73f 73f
2:30pm  -   -   -  13 18 mph 1019.3mb 73f 73f
2:20pm  -   -   -  13 16 mph 1019.3mb 73f 73f
2:10pm  -   -   -  13 18 mph 1019.4mb 73f 73f
2:00pm  -   -   -  16 18 mph 1019.3mb 73f 73f
1:50pm 4ft 7s 5s 16 18 mph 1019.4mb 73f 73f
1:40pm 4ft  -  5s 16 18 mph 1019.5mb 73f 73f
1:30pm  -   -   -  13 18 mph 1019.5mb 73f 73f
1:20pm  -   -   -  13 18 mph 1019.6mb 73f 73f
1:10pm  -   -   -  13 16 mph 1019.6mb 73f 73f
1:00pm  -   -   -  13 16 mph 1019.9mb 73f 73f
12:50pm 4ft 6s 5s 11 16 mph 1020mb 73f 73f
12:40pm  -   -   -  13 16 mph 1020mb 73f 73f
12:30pm  -   -   -  13 16 mph 1020mb 73f 73f
12:20pm  -   -   -  13 13 mph 1020mb 73f 73f
12:10pm  -   -   -  11 16 mph 1020.3mb 73f 73f
12:00pm  -   -   -  13 16 mph 1020.4mb 73f 73f
11:50am 3.5ft 6s 5s 11 16 mph 1020.4mb 73f 73f
11:40am 3.5ft  -  5s 11 13 mph 1020.4mb 73f 73f
11:30am  -   -   -  11 13 mph 1020.5mb 73f 73f
11:20am  -   -   -  11 13 mph 1020.5mb 73f 73f
11:10am  -   -   -  13 16 mph 1020.6mb 73f 73f
11:00am  -   -   -  13 16 mph 1020.5mb 73f 73f
10:50am 3.5ft 7s 5s 11 16 mph 1020.6mb 73f 73f
10:40am  -   -   -  13 16 mph 1020.6mb 73f 73f
10:30am  -   -   -  13 16 mph 1020.8mb 73f 73f
10:20am  -   -   -  11 16 mph 1020.6mb 73f 73f
10:10am  -   -   -  11 16 mph 1020.8mb 73f 73f
10:00am  -   -   -  11 16 mph 1020.9mb 73f 73f
9:50am 4.5ft 8s 5s 13 16 mph 1020.9mb 73f 73f
9:40am  -   -   -  13 16 mph 1020.6mb 73f 73f
9:30am  -   -   -  13 16 mph 1020.9mb 73f 73f
9:20am  -   -   -  13 16 mph 1020.9mb 73f 73f
9:10am  -   -   -  13 18 mph 1020.8mb 73f 73f
9:00am  -   -   -  13 18 mph 1020.9mb 73f 73f
8:50am 4ft 8s 5s 13 16 mph 1020.8mb 73f 73f
8:40am 4ft  -  5s 11 13 mph 1021mb 73f 73f
8:30am  -   -   -  11 13 mph 1021mb 73f 73f
8:20am  -   -   -  11 16 mph 1020.9mb 73f 73f
8:10am  -   -   -  11 16 mph 1020.8mb 73f 73f
8:00am  -   -   -  11 13 mph 1020.8mb 73f 73f
7:50am 4ft 8s 5s 11 13 mph 1021mb 73f 73f
7:40am  -   -   -  11 13 mph 1021mb 73f 73f
7:30am  -   -   -  11 13 mph 1020.9mb 73f 73f
7:20am  -   -   -  11 13 mph 1020.6mb 73f 73f
7:10am  -   -   -  11 13 mph 1020.6mb 73f 73f
7:00am  -   -   -  13 16 mph 1020.5mb 73f 73f
6:50am 4.5ft 8s 5s 13 18 mph 1020.5mb 73f 73f
6:40am  -   -   -  13 16 mph 1020.5mb 73f 73f
6:30am  -   -   -  13 16 mph 1020.5mb 73f 73f
6:20am  -   -   -  13 16 mph 1020.4mb 73f 73f
6:10am  -   -   -  11 16 mph 1020.4mb 73f 73f
6:00am  -   -   -  13 16 mph 1020.3mb 73f 73f
5:50am 4.5ft 6s 5s 13 16 mph 1020.1mb 73f 73f
5:40am  -   -   -  13 16 mph 1020mb 73f 73f
5:30am  -   -   -  13 16 mph 1020mb 73f 73f
5:20am  -   -   -  13 16 mph 1019.8mb 73f 73f
5:10am  -   -   -  13 16 mph 1019.8mb 73f 73f
5:00am  -   -   -  13 16 mph 1019.8mb 73f 73f
4:50am 4.5ft 8s 5s 13 16 mph 1019.6mb 73f 72f
4:40am  -   -   -  11 16 mph 1019.6mb 73f 72f
4:30am  -   -   -  13 18 mph 1019.6mb 73f 72f
4:20am  -   -   -  13 16 mph 1019.6mb 73f 72f
4:10am  -   -   -  13 16 mph 1019.6mb 73f 72f
4:00am  -   -   -  13 18 mph 1019.6mb 73f 72f
3:50am 4.5ft 7s 5s 13 18 mph 1019.8mb 73f 72f
3:40am 4.5ft  -  5s 11 16 mph 1019.6mb 73f 72f
3:30am  -   -   -  11 16 mph 1019.8mb 73f 72f
3:20am  -   -   -  11 16 mph 1019.9mb 73f 72f
3:10am  -   -   -  11 13 mph 1019.8mb 73f 72f
3:00am  -   -   -  13 18 mph 1019.8mb 73f 72f
2:50am 4.5ft 8s 5s 13 18 mph 1019.8mb 73f 72f
2:40am 4.5ft  -  5s 13 16 mph 1020mb 73f 72f
2:30am  -   -   -  13 18 mph 1019.9mb 73f 72f
2:20am  -   -   -  16 20 mph 1020mb 73f 72f
2:10am  -   -   -  13 18 mph 1020mb 73f 72f
2:00am  -   -   -  11 18 mph 1020.1mb 73f 73f
1:50am 4.5ft 6s 5s 9 13 mph 1020.5mb 73f 73f
1:40am  -   -   -  9 11 mph 1020.5mb 73f 73f
1:30am  -   -   -  11 13 mph 1020.6mb 73f 73f
1:20am  -   -   -  11 13 mph 1020.6mb 73f 73f
1:10am  -   -   -  11 13 mph 1020.6mb 73f 72f
1:00am  -   -   -  11 13 mph 1021mb 73f 72f
12:50am 5ft 8s 5s 11 13 mph 1021mb 73f 73f
12:40am  -   -   -  11 13 mph 1021.1mb 73f 72f
12:30am  -   -   -  11 13 mph 1021.1mb 73f 72f
12:20am  -   -   -  11 13 mph 1021.3mb 73f 72f
12:10am  -   -   -  13 16 mph 1021.3mb 73f 72f
12:00am  -   -   -  13 16 mph 1021mb 73f 72f
Sun 05/21 11:50pm 5ft 8s 5s 16 18 mph 1021mb 73f 72f
11:40pm  -   -   -  16 20 mph 1021mb 73f 72f
11:30pm  -   -   -  18 20 mph 1021mb 73f 72f
11:20pm  -   -   -  18 20 mph 1021mb 73f 72f
11:10pm  -   -   -  18 20 mph 1021mb 73f 72f
11:00pm  -   -   -  16 20 mph 1021.3mb 74f 72f
10:50pm 5ft 6s 5s 18 20 mph 1021.4mb 74f 72f
10:40pm 5ft  -  5s 18 20 mph 1021.5mb - 72f
10:30pm  -   -   -  16 20 mph 1021.8mb 74f 72f
10:20pm  -   -   -  16 18 mph 1021.8mb 74f 72f
10:10pm  -   -   -  16 20 mph 1022mb 74f 72f
10:00pm  -   -   -  16 20 mph 1021.9mb 74f 72f
9:50pm 5.5ft 8s 5s 16 18 mph 1022mb 74f 72f
9:40pm  -   -   -  16 18 mph 1022mb 74f 72f
9:30pm  -   -   -  16 20 mph 1021.9mb 74f 72f
9:20pm  -   -   -  18 20 mph 1021.8mb 74f 72f
9:10pm  -   -   -  18 22 mph 1021.6mb 74f 72f
9:00pm  -   -   -  18 22 mph 1021.5mb 74f 72f
8:50pm 6ft 8s 5s 20 25 mph 1021.5mb 74f 72f
8:40pm 6ft  -  5s 20 25 mph 1021.1mb 74f 72f
8:30pm  -   -   -  20 22 mph 1021.3mb 74f 72f
8:20pm  -   -   -  18 22 mph 1021.6mb 74f 72f
8:10pm  -   -   -  18 22 mph 1021.6mb 74f 72f
8:00pm  -   -   -  18 22 mph 1021.5mb 74f 72f
7:50pm 5ft 6s 5s 20 22 mph 1021.5mb 74f 72f
7:40pm  -   -   -  18 22 mph 1021.5mb 74f 72f
7:30pm  -   -   -  20 22 mph 1021.4mb 74f 72f
7:20pm  -   -   -  18 22 mph 1021.3mb 74f 72f
7:10pm  -   -   -  18 22 mph 1021.4mb 74f 72f
7:00pm  -   -   -  18 22 mph 1021.5mb 74f 72f
6:50pm 6ft 8s 5s 18 20 mph 1021.4mb 74f 72f
6:40pm  -   -   -  18 22 mph 1021.3mb 74f 72f
6:30pm  -   -   -  18 22 mph 1021.1mb 74f 72f
6:20pm  -   -   -  20 22 mph 1021mb 74f 72f
6:10pm  -   -   -  20 25 mph 1021mb 74f 72f
6:00pm  -   -   -  20 25 mph 1020.9mb 74f 72f
5:50pm 5.5ft 8s 5s 20 22 mph 1021mb 73f 72f
5:40pm  -   -   -  20 25 mph 1021mb 73f 72f
5:30pm  -   -   -  20 25 mph 1021mb 73f 72f
5:20pm  -   -   -  20 25 mph 1021mb 73f 72f
5:10pm  -   -   -  20 25 mph 1021mb 73f 72f
5:00pm  -   -   -  20 25 mph 1020.9mb 73f 72f
4:50pm 5ft 9s 5s 20 25 mph 1021mb 73f 72f
4:40pm 5ft  -  5s 20 25 mph 1021mb 73f 72f
4:30pm  -   -   -  20 25 mph 1021mb 73f 72f
4:20pm  -   -   -  20 25 mph 1020.9mb 73f 72f
4:10pm  -   -   -  20 25 mph 1021mb 73f 72f
4:00pm  -   -   -  20 25 mph 1021mb 73f 72f
3:50pm 5ft 8s 5s 20 25 mph 1021mb 73f 72f
3:40pm  -   -   -  20 25 mph 1021mb 73f 72f
3:30pm  -   -   -  20 25 mph 1021.3mb 74f 72f
3:20pm  -   -   -  20 22 mph 1021.3mb 74f 72f
3:10pm  -   -   -  20 22 mph 1021.4mb 74f 72f
3:00pm  -   -   -  20 25 mph 1021.5mb 74f 72f
2:50pm 5ft 8s 5s 18 22 mph 1021.5mb 74f 73f
2:40pm 5ft  -  5s 18 20 mph 1021.8mb 74f 73f
2:30pm  -   -   -  18 22 mph 1021.8mb 74f 73f
2:20pm  -   -   -  18 20 mph 1021.8mb 74f 73f
2:10pm  -   -   -  18 20 mph 1021.8mb 74f 73f
2:00pm  -   -   -  18 20 mph 1021.9mb 74f 73f
1:50pm 5ft 8s 5s 16 20 mph 1022mb 74f 73f
1:40pm  -   -   -  16 18 mph 1022mb 74f 73f
1:30pm  -   -   -  16 20 mph 1022mb 74f 73f
1:20pm  -   -   -  16 18 mph 1022.1mb 74f 73f
1:10pm  -   -   -  16 18 mph 1022.1mb 75f 73f
1:00pm  -   -   -  16 18 mph 1022.3mb 75f 73f
12:50pm 5ft 9s 5s 16 18 mph 1022.3mb 75f 73f
12:40pm  -   -   -  16 20 mph 1022mb 75f 73f
12:30pm  -   -   -  18 22 mph 1022mb 75f 73f
12:20pm  -   -   -  18 22 mph 1022mb 75f 73f
12:10pm  -   -   -  18 22 mph 1022.4mb 75f 73f
12:00pm  -   -   -  18 22 mph 1022.3mb 75f 73f
11:50am 5ft 9s 5s 20 22 mph 1022.3mb 75f 73f
11:40am  -   -   -  18 22 mph 1022.4mb 75f 73f
11:30am  -   -   -  18 22 mph 1021.6mb 75f 73f
11:20am  -   -   -  18 22 mph 1022.4mb 75f 73f
11:10am  -   -   -  18 20 mph 1022.3mb 75f 73f
11:00am  -   -   -  18 22 mph 1022.4mb 75f 73f
10:50am 5ft 8s 6s 16 20 mph 1022.3mb 75f 73f
10:40am 5ft  -  6s 18 20 mph 1022.3mb 75f 73f
10:30am  -   -   -  16 20 mph 1022.1mb 75f 73f
10:20am  -   -   -  16 20 mph 1022.3mb 75f 73f
10:10am  -   -   -  16 20 mph 1022.3mb 75f 73f
10:00am  -   -   -  16 20 mph 1022mb 75f 73f
9:50am 5.5ft 8s 6s 16 20 mph 1022mb 75f 73f
9:40am  -   -   -  16 18 mph 1022mb 75f 73f
9:30am  -   -   -  16 18 mph 1022mb 75f 73f
9:20am  -   -   -  16 20 mph 1021.9mb 75f 73f
9:10am  -   -   -  16 20 mph 1021.1mb 75f 73f
9:00am  -   -   -  16 18 mph 1021.6mb 75f 73f
8:50am 5.5ft 8s 6s 13 18 mph 1021.8mb 75f 73f
8:40am 5.5ft  -  6s 13 16 mph 1021.6mb 75f 73f
8:30am  -   -   -  13 16 mph 1021.8mb 75f 73f
8:20am  -   -   -  13 16 mph 1021.5mb 75f 73f
8:10am  -   -   -  13 16 mph 1021.5mb 75f 73f
8:00am  -   -   -  11 16 mph 1021.4mb 75f 73f
7:50am 4.5ft 9s 7s 11 13 mph 1021.3mb 74f 74f
7:40am 4.5ft  -  7s 9 13 mph 1021.1mb 74f 74f
7:30am  -   -   -  7 9 mph 1021mb 74f 73f
7:20am  -   -   -  7 11 mph 1021mb 74f 73f
7:10am  -   -   -  7 9 mph 1021mb 74f 73f
7:00am  -   -   -  4 7 mph 1020.8mb 75f 73f
6:50am 5ft 8s 7s 4 7 mph 1020.6mb 75f 73f
6:40am  -   -   -  4 9 mph 1020.5mb 75f 73f
6:30am  -   -   -  11 13 mph 1020.5mb 75f 73f
6:20am  -   -   -  11 13 mph 1020.5mb 75f 73f
6:10am  -   -   -  11 13 mph 1020.4mb 75f 73f
6:00am  -   -   -  13 16 mph 1020.3mb 75f 73f
5:50am 4ft 8s 6s 13 16 mph 1020.1mb 75f 74f
5:40am  -   -   -  4 13 mph 1020mb 75f 74f
5:30am  -   -   -  2 4 mph 1020mb 75f 74f
5:20am  -   -   -   -  0 mph 1019.9mb 75f 74f
5:10am  -   -   -   -  2 mph 1019.8mb 75f 74f
5:00am  -   -   -   -  0 mph 1019.9mb 75f 74f
4:50am 3.5ft 9s 6s  -  0 mph 1019.9mb 75f 74f
4:40am 3.5ft  -  6s  -  0 mph 1019.9mb 75f 74f
4:30am  -   -   -   -  2 mph 1019.3mb 75f 74f
4:20am  -   -   -   -  0 mph 1019.9mb - 74f
4:10am  -   -   -   -  2 mph 1019.9mb 75f 74f
4:00am  -   -   -  2 2 mph 1020mb 75f 74f
3:50am 3ft 6s 5s 2 2 mph 1019.9mb 75f 74f
3:40am 3ft  -  5s 2 2 mph 1019.9mb 75f 74f
3:30am  -   -   -  2 4 mph 1019.9mb 75f 75f
3:20am  -   -   -  2 2 mph 1019.9mb 75f 75f
3:10am  -   -   -  2 4 mph 1019.9mb 76f 75f
3:00am  -   -   -  2 2 mph 1019.8mb 76f 75f
2:50am 2.5ft 6s 5s 2 4 mph 1019.8mb 75f 75f
2:40am  -   -   -  2 4 mph 1019.8mb 75f 75f
2:30am  -   -   -  2 4 mph 1019.9mb 75f 75f
2:20am  -   -   -  2 4 mph 1020mb 75f 75f
2:10am  -   -   -  2 2 mph 1020mb 75f 75f
2:00am  -   -   -   -  2 mph 1020mb 75f 75f
1:50am 2.5ft 8s 5s 2 2 mph 1020mb 75f 75f
1:40am  -   -   -  2 4 mph 1020.1mb 75f 75f
1:30am  -   -   -  4 7 mph 1020.4mb 75f 75f
1:20am  -   -   -  7 7 mph 1020.4mb 75f 75f
1:10am  -   -   -  7 9 mph 1020.4mb 75f 76f
1:00am  -   -   -  4 7 mph 1020.4mb 75f 76f
12:50am 3ft 5s 5s 4 4 mph 1020.5mb 75f 76f
12:40am  -   -   -  4 4 mph 1020.5mb 75f 76f
12:30am  -   -   -  4 7 mph 1020.5mb 75f 76f
12:20am  -   -   -  4 7 mph 1020.5mb 75f 76f
12:10am  -   -   -  7 9 mph 1020.6mb 75f 76f
12:00am  -   -   -  9 11 mph 1020.6mb 75f 76f
Sat 05/20 11:50pm 2.5ft 7s 5s 9 13 mph 1020.6mb 75f 76f